Saint Bonnet de Bellac- Haute Vienne - France
Donnes mto: mardi, 17/04/2012
Date Horaire Temp. E. Hum. E. P.atmo. Pluie Vent Direction Direction Ensoleilleme Solaire P. de rose Temp au vent Rafales
17/04/2012 00:00 1,9 C 66 % 1021,0 hPa 0,0 mm 0,0 km/h (0 Bft) N 360 0 min 0 W/m -3,8 C 1,9 C 0,0 km/h (0 Bft)
17/04/2012 00:10 1,6 C 67 % 1020,9 hPa 0,0 mm 0,0 km/h (0 Bft) N 360 0 min 0 W/m -3,9 C 1,6 C 0,0 km/h (0 Bft)
17/04/2012 00:20 1,3 C 68 % 1020,8 hPa 0,0 mm 0,0 km/h (0 Bft) N-NE 22 0 min 0 W/m -3,9 C 1,3 C 0,0 km/h (0 Bft)
17/04/2012 00:30 1,1 C 69 % 1020,8 hPa 0,0 mm 0,0 km/h (0 Bft) N-NE 22 0 min 0 W/m -3,9 C 1,1 C 0,0 km/h (0 Bft)
17/04/2012 00:40 0,9 C 69 % 1020,8 hPa 0,0 mm 0,0 km/h (0 Bft) N-NE 22 0 min 0 W/m -4,1 C 0,9 C 0,0 km/h (0 Bft)
17/04/2012 00:50 0,9 C 70 % 1020,6 hPa 0,0 mm 0,0 km/h (0 Bft) E-NE 67 0 min 0 W/m -3,9 C 0,9 C 0,0 km/h (0 Bft)
17/04/2012 01:00 0,6 C 70 % 1020,5 hPa 0,0 mm 0,0 km/h (0 Bft) E-NE 67 0 min 0 W/m -4,2 C 0,6 C 0,0 km/h (0 Bft)
17/04/2012 01:10 0,5 C 71 % 1020,6 hPa 0,0 mm 0,0 km/h (0 Bft) E-NE 67 0 min 0 W/m -4,1 C 0,5 C 0,0 km/h (0 Bft)
17/04/2012 01:20 0,4 C 71 % 1020,6 hPa 0,0 mm 0,0 km/h (0 Bft) E-NE 67 0 min 0 W/m -4,2 C 0,4 C 0,0 km/h (0 Bft)
17/04/2012 01:30 0,3 C 71 % 1020,6 hPa 0,0 mm 0,0 km/h (0 Bft) E-NE 67 0 min 0 W/m -4,3 C 0,3 C 0,0 km/h (0 Bft)
17/04/2012 01:40 0,2 C 72 % 1020,4 hPa 0,0 mm 0,0 km/h (0 Bft) E-NE 67 0 min 0 W/m -4,2 C 0,2 C 0,0 km/h (0 Bft)
17/04/2012 01:50 0,0 C 73 % 1020,3 hPa 0,0 mm 0,0 km/h (0 Bft) E-NE 67 0 min 0 W/m -4,2 C 0,0 C 0,0 km/h (0 Bft)
17/04/2012 02:00 -0,1 C 74 % 1020,1 hPa 0,0 mm 0,0 km/h (0 Bft) N 360 0 min 0 W/m -4,2 C -0,1 C 0,0 km/h (0 Bft)
17/04/2012 02:10 -0,2 C 74 % 1020,1 hPa 0,0 mm 0,0 km/h (0 Bft) S 180 0 min 0 W/m -4,3 C -0,2 C 0,0 km/h (0 Bft)
17/04/2012 02:20 -0,5 C 75 % 1020,1 hPa 0,0 mm 0,0 km/h (0 Bft) E-NE 67 0 min 0 W/m -4,4 C -0,5 C 0,0 km/h (0 Bft)
17/04/2012 02:30 -0,6 C 75 % 1019,8 hPa 0,0 mm 0,0 km/h (0 Bft) E-NE 67 0 min 0 W/m -4,5 C -0,6 C 0,0 km/h (0 Bft)
17/04/2012 02:40 -0,8 C 76 % 1019,7 hPa 0,0 mm 0,0 km/h (0 Bft) E-NE 67 0 min 0 W/m -4,5 C -0,8 C 0,0 km/h (0 Bft)
17/04/2012 02:50 -0,9 C 77 % 1019,7 hPa 0,0 mm 0,0 km/h (0 Bft) N-NO 337 0 min 0 W/m -4,4 C -0,9 C 0,0 km/h (0 Bft)
17/04/2012 03:02 -1,1 C 77 % 1019,6 hPa 0,0 mm 0,0 km/h (0 Bft) N-NO 337 0 min 0 W/m -4,6 C -1,1 C 0,0 km/h (0 Bft)
17/04/2012 03:10 -0,9 C 78 % 1019,2 hPa 0,0 mm 0,0 km/h (0 Bft) N-NO 337 0 min 0 W/m -4,2 C -0,9 C 0,0 km/h (0 Bft)
17/04/2012 03:20 -1,1 C 78 % 1019,1 hPa 0,0 mm 0,0 km/h (0 Bft) N-NO 337 0 min 0 W/m -4,4 C -1,1 C 0,0 km/h (0 Bft)
17/04/2012 03:30 -1,2 C 78 % 1019,1 hPa 0,0 mm 0,0 km/h (0 Bft) N-NO 337 0 min 0 W/m -4,5 C -1,2 C 0,0 km/h (0 Bft)
17/04/2012 03:40 -1,4 C 79 % 1018,9 hPa 0,0 mm 0,0 km/h (0 Bft) N-NO 337 0 min 0 W/m -4,6 C -1,4 C 0,0 km/h (0 Bft)
17/04/2012 03:50 -1,6 C 79 % 1018,9 hPa 0,0 mm 0,0 km/h (0 Bft) N-NO 337 0 min 0 W/m -4,8 C -1,6 C 0,0 km/h (0 Bft)
17/04/2012 04:00 -1,6 C 80 % 1018,9 hPa 0,0 mm 0,0 km/h (0 Bft) N-NO 337 0 min 0 W/m -4,6 C -1,6 C 0,0 km/h (0 Bft)
17/04/2012 04:10 -1,7 C 80 % 1018,9 hPa 0,0 mm 0,0 km/h (0 Bft) N-NO 337 0 min 0 W/m -4,7 C -1,7 C 0,0 km/h (0 Bft)
17/04/2012 04:20 -1,7 C 80 % 1018,8 hPa 0,0 mm 0,0 km/h (0 Bft) N-NO 337 0 min 0 W/m -4,7 C -1,7 C 0,0 km/h (0 Bft)
17/04/2012 04:30 -1,9 C 80 % 1018,7 hPa 0,0 mm 0,0 km/h (0 Bft) N-NO 337 0 min 0 W/m -4,9 C -1,9 C 0,0 km/h (0 Bft)
17/04/2012 04:40 -1,9 C 81 % 1018,5 hPa 0,0 mm 0,0 km/h (0 Bft) N-NO 337 0 min 0 W/m -4,7 C -1,9 C 0,0 km/h (0 Bft)
17/04/2012 04:50 -2,0 C 81 % 1018,4 hPa 0,0 mm 0,0 km/h (0 Bft) N-NO 337 0 min 0 W/m -4,8 C -2,0 C 0,0 km/h (0 Bft)
17/04/2012 05:00 -2,2 C 81 % 1018,1 hPa 0,0 mm 0,0 km/h (0 Bft) N-NO 337 0 min 0 W/m -5,0 C -2,2 C 0,0 km/h (0 Bft)
17/04/2012 05:10 -2,3 C 81 % 1017,9 hPa 0,0 mm 0,0 km/h (0 Bft) N-NO 337 0 min 0 W/m -5,1 C -2,3 C 0,0 km/h (0 Bft)
17/04/2012 05:20 -2,4 C 82 % 1017,6 hPa 0,0 mm 0,0 km/h (0 Bft) N-NO 337 0 min 0 W/m -5,0 C -2,4 C 0,0 km/h (0 Bft)
17/04/2012 05:30 -2,6 C 81 % 1017,5 hPa 0,0 mm 0,0 km/h (0 Bft) N-NO 337 0 min 0 W/m -5,4 C -2,6 C 0,0 km/h (0 Bft)
17/04/2012 05:40 -2,6 C 82 % 1017,3 hPa 0,0 mm 0,0 km/h (0 Bft) N-NO 337 0 min 0 W/m -5,2 C -2,6 C 0,0 km/h (0 Bft)
17/04/2012 05:50 -2,7 C 82 % 1017,1 hPa 0,0 mm 0,0 km/h (0 Bft) E 90 0 min 0 W/m -5,3 C -2,7 C 0,0 km/h (0 Bft)
17/04/2012 06:00 -2,7 C 82 % 1017,0 hPa 0,0 mm 0,0 km/h (0 Bft) E 90 0 min 0 W/m -5,3 C -2,7 C 0,0 km/h (0 Bft)
17/04/2012 06:10 -2,7 C 81 % 1016,9 hPa 0,0 mm 0,7 km/h (0 Bft) E 90 0 min 0 W/m -5,5 C -2,7 C 0,7 km/h (0 Bft)
17/04/2012 06:20 -2,6 C 81 % 1016,7 hPa 0,0 mm 4,0 km/h (1 Bft) E-SE 112 0 min 0 W/m -5,4 C -2,6 C 6,8 km/h (2 Bft)
17/04/2012 06:30 -2,4 C 82 % 1016,6 hPa 0,0 mm 0,0 km/h (0 Bft) E-SE 112 0 min 0 W/m -5,0 C -2,4 C 0,0 km/h (0 Bft)
17/04/2012 06:40 -2,3 C 82 % 1016,4 hPa 0,0 mm 1,8 km/h (1 Bft) E 90 0 min 0 W/m -4,9 C -2,3 C 4,0 km/h (1 Bft)
17/04/2012 06:50 -2,4 C 82 % 1016,3 hPa 0,0 mm 0,0 km/h (0 Bft) E-SE 112 0 min 0 W/m -5,0 C -2,4 C 0,0 km/h (0 Bft)
17/04/2012 07:00 -2,4 C 82 % 1016,4 hPa 0,0 mm 0,0 km/h (0 Bft) E 90 0 min 0 W/m -5,0 C -2,4 C 0,0 km/h (0 Bft)
17/04/2012 07:10 -2,5 C 82 % 1016,5 hPa 0,0 mm 0,0 km/h (0 Bft) E 90 0 min 0 W/m -5,1 C -2,5 C 0,0 km/h (0 Bft)
17/04/2012 07:20 -2,6 C 83 % 1016,5 hPa 0,0 mm 0,0 km/h (0 Bft) E 90 2 min 0 W/m -5,1 C -2,6 C 0,0 km/h (0 Bft)
17/04/2012 07:30 -2,6 C 82 % 1016,3 hPa 0,0 mm 0,0 km/h (0 Bft) SE 135 2 min 0 W/m -5,2 C -2,6 C 0,0 km/h (0 Bft)
17/04/2012 07:40 -2,5 C 82 % 1016,2 hPa 0,0 mm 2,9 km/h (1 Bft) E 90 2 min 0 W/m -5,1 C -2,5 C 2,9 km/h (1 Bft)
17/04/2012 07:50 -2,5 C 83 % 1016,1 hPa 0,0 mm 2,5 km/h (1 Bft) E 90 2 min 0 W/m -5,0 C -2,5 C 2,5 km/h (1 Bft)
17/04/2012 08:00 -2,2 C 83 % 1016,2 hPa 0,0 mm 0,0 km/h (0 Bft) E 90 2 min 0 W/m -4,7 C -2,2 C 0,0 km/h (0 Bft)
17/04/2012 08:10 -1,9 C 84 % 1016,2 hPa 0,0 mm 0,0 km/h (0 Bft) E 90 2 min 0 W/m -4,2 C -1,9 C 0,0 km/h (0 Bft)
17/04/2012 08:20 -1,6 C 84 % 1016,2 hPa 0,0 mm 0,0 km/h (0 Bft) E 90 2 min 0 W/m -3,9 C -1,6 C 0,0 km/h (0 Bft)
17/04/2012 08:30 -1,2 C 84 % 1016,1 hPa 0,0 mm 0,0 km/h (0 Bft) E 90 2 min 0 W/m -3,5 C -1,2 C 0,0 km/h (0 Bft)
17/04/2012 08:40 -0,8 C 83 % 1015,9 hPa 0,0 mm 0,4 km/h (0 Bft) E 90 2 min 0 W/m -3,3 C -0,8 C 3,6 km/h (1 Bft)
17/04/2012 08:50 -0,3 C 83 % 1015,7 hPa 0,0 mm 0,0 km/h (0 Bft) E 90 2 min 0 W/m -2,8 C -0,3 C 0,0 km/h (0 Bft)
17/04/2012 09:00 0,2 C 83 % 1015,6 hPa 0,0 mm 0,4 km/h (0 Bft) E 90 2 min 0 W/m -2,3 C 0,2 C 2,9 km/h (1 Bft)
17/04/2012 09:10 0,8 C 84 % 1015,6 hPa 0,0 mm 0,0 km/h (0 Bft) E 90 2 min 0 W/m -1,6 C 0,8 C 0,0 km/h (0 Bft)
17/04/2012 09:20 1,6 C 83 % 1015,6 hPa 0,0 mm 2,2 km/h (1 Bft) S-SO 202 2 min 0 W/m -1,0 C 1,6 C 4,3 km/h (1 Bft)
17/04/2012 09:30 2,6 C 80 % 1015,5 hPa 0,0 mm 2,5 km/h (1 Bft) S 180 2 min 0 W/m -0,5 C 2,6 C 3,6 km/h (1 Bft)
17/04/2012 09:40 3,6 C 77 % 1015,3 hPa 0,0 mm 3,6 km/h (1 Bft) S-SO 202 2 min 0 W/m -0,0 C 3,6 C 6,8 km/h (2 Bft)
17/04/2012 09:50 4,4 C 74 % 1015,1 hPa 0,0 mm 2,9 km/h (1 Bft) S-SO 202 2 min 0 W/m 0,2 C 4,4 C 3,2 km/h (1 Bft)
17/04/2012 10:00 5,1 C 68 % 1014,9 hPa 0,0 mm 4,7 km/h (1 Bft) S 180 2 min 0 W/m -0,3 C 4,3 C 9,4 km/h (2 Bft)
17/04/2012 10:10 5,7 C 66 % 1014,8 hPa 0,0 mm 9,0 km/h (2 Bft) SO 225 2 min 0 W/m -0,1 C 3,7 C 13,7 km/h (3 Bft)
17/04/2012 10:20 6,1 C 62 % 1014,6 hPa 0,0 mm 13,0 km/h (3 Bft) S-SO 202 2 min 0 W/m -0,6 C 3,4 C 17,6 km/h (3 Bft)
17/04/2012 10:30 6,3 C 61 % 1014,5 hPa 0,0 mm 13,0 km/h (3 Bft) O-SO 247 2 min 0 W/m -0,7 C 3,7 C 20,9 km/h (4 Bft)
17/04/2012 10:40 6,6 C 61 % 1014,2 hPa 0,0 mm 7,9 km/h (2 Bft) SO 225 2 min 0 W/m -0,4 C 5,0 C 11,9 km/h (2 Bft)
17/04/2012 10:50 7,1 C 59 % 1014,2 hPa 0,0 mm 11,9 km/h (2 Bft) O-SO 247 2 min 0 W/m -0,4 C 4,8 C 17,6 km/h (3 Bft)
17/04/2012 11:00 7,7 C 58 % 1014,1 hPa 0,0 mm 6,1 km/h (2 Bft) SO 225 2 min 0 W/m -0,0 C 6,8 C 7,6 km/h (2 Bft)
17/04/2012 11:10 8,0 C 59 % 1014,0 hPa 0,0 mm 4,0 km/h (1 Bft) SO 225 2 min 0 W/m 0,5 C 8,0 C 6,1 km/h (2 Bft)
17/04/2012 11:20 8,3 C 58 % 1013,8 hPa 0,0 mm 5,8 km/h (2 Bft) S-SO 202 2 min 0 W/m 0,5 C 7,6 C 10,1 km/h (2 Bft)
17/04/2012 11:30 8,4 C 56 % 1013,7 hPa 0,0 mm 14,4 km/h (3 Bft) SO 225 2 min 0 W/m 0,1 C 6,0 C 19,8 km/h (3 Bft)
17/04/2012 11:40 8,4 C 56 % 1013,6 hPa 0,0 mm 14,8 km/h (3 Bft) SO 225 2 min 0 W/m 0,1 C 6,0 C 24,1 km/h (4 Bft)
17/04/2012 11:50 8,6 C 57 % 1013,4 hPa 0,0 mm 16,2 km/h (3 Bft) S-SO 202 2 min 0 W/m 0,6 C 6,0 C 19,1 km/h (3 Bft)
17/04/2012 12:00 8,8 C 58 % 1013,3 hPa 0,0 mm 18,0 km/h (3 Bft) SO 225 2 min 0 W/m 1,0 C 6,1 C 20,9 km/h (4 Bft)
17/04/2012 12:10 8,6 C 60 % 1013,2 hPa 0,0 mm 6,1 km/h (2 Bft) O-SO 247 2 min 0 W/m 1,3 C 7,8 C 11,5 km/h (2 Bft)
17/04/2012 12:20 8,8 C 60 % 1012,9 hPa 0,0 mm 8,3 km/h (2 Bft) SO 225 2 min 0 W/m 1,5 C 7,5 C 9,0 km/h (2 Bft)
17/04/2012 12:30 9,2 C 61 % 1012,8 hPa 0,0 mm 10,4 km/h (2 Bft) O-SO 247 2 min 0 W/m 2,1 C 7,6 C 14,0 km/h (3 Bft)
17/04/2012 12:40 9,3 C 61 % 1012,4 hPa 0,0 mm 12,2 km/h (2 Bft) SO 225 2 min 0 W/m 2,2 C 7,4 C 22,0 km/h (4 Bft)
17/04/2012 12:50 9,4 C 63 % 1012,3 hPa 0,0 mm 11,2 km/h (2 Bft) S-SO 202 2 min 0 W/m 2,7 C 7,7 C 15,1 km/h (3 Bft)
17/04/2012 13:00 9,3 C 63 % 1012,1 hPa 0,0 mm 11,9 km/h (2 Bft) S-SO 202 2 min 0 W/m 2,6 C 7,5 C 17,3 km/h (3 Bft)
17/04/2012 13:10 9,1 C 63 % 1011,9 hPa 0,0 mm 7,6 km/h (2 Bft) S-SO 202 2 min 0 W/m 2,4 C 8,0 C 11,5 km/h (2 Bft)
17/04/2012 13:20 9,1 C 64 % 1011,7 hPa 0,0 mm 15,1 km/h (3 Bft) S-SO 202 2 min 0 W/m 2,7 C 6,8 C 24,1 km/h (4 Bft)
17/04/2012 13:30 9,4 C 63 % 1011,6 hPa 0,0 mm 13,3 km/h (3 Bft) SO 225 2 min 0 W/m 2,7 C 7,4 C 13,3 km/h (3 Bft)
17/04/2012 13:40 9,5 C 64 % 1011,4 hPa 0,0 mm 11,2 km/h (2 Bft) S-SO 202 2 min 0 W/m 3,0 C 7,8 C 11,2 km/h (2 Bft)
17/04/2012 13:50 9,7 C 65 % 1011,3 hPa 0,0 mm 9,7 km/h (2 Bft) SO 225 2 min 0 W/m 3,4 C 8,3 C 10,1 km/h (2 Bft)
17/04/2012 14:00 9,6 C 63 % 1011,0 hPa 0,0 mm 15,1 km/h (3 Bft) SO 225 2 min 0 W/m 2,9 C 7,4 C 18,0 km/h (3 Bft)
17/04/2012 14:10 9,4 C 65 % 1010,9 hPa 0,0 mm 16,2 km/h (3 Bft) SO 225 2 min 0 W/m 3,2 C 7,0 C 25,2 km/h (4 Bft)
17/04/2012 14:20 9,4 C 66 % 1010,6 hPa 0,0 mm 10,4 km/h (2 Bft) O-SO 247 2 min 0 W/m 3,4 C 7,8 C 19,8 km/h (3 Bft)
17/04/2012 14:30 9,4 C 66 % 1010,3 hPa 0,0 mm 18,7 km/h (3 Bft) S-SO 202 2 min 0 W/m 3,4 C 6,8 C 21,6 km/h (4 Bft)
17/04/2012 14:40 9,6 C 68 % 1010,2 hPa 0,0 mm 11,5 km/h (2 Bft) SO 225 2 min 0 W/m 4,0 C 7,9 C 16,6 km/h (3 Bft)
17/04/2012 14:50 9,8 C 67 % 1010,0 hPa 0,0 mm 12,2 km/h (2 Bft) O-SO 247 2 min 0 W/m 4,0 C 8,0 C 18,7 km/h (3 Bft)
17/04/2012 15:00 9,7 C 67 % 1009,8 hPa 0,0 mm 21,2 km/h (4 Bft) O-SO 247 2 min 0 W/m 3,9 C 6,9 C 29,9 km/h (5 Bft)
17/04/2012 15:10 9,7 C 69 % 1009,6 hPa 0,0 mm 10,1 km/h (2 Bft) O-SO 247 2 min 0 W/m 4,3 C 8,3 C 16,6 km/h (3 Bft)
17/04/2012 15:20 9,7 C 68 % 1009,3 hPa 0,0 mm 12,6 km/h (3 Bft) SO 225 2 min 0 W/m 4,1 C 7,9 C 18,4 km/h (3 Bft)
17/04/2012 15:30 9,5 C 68 % 1009,1 hPa 0,0 mm 21,6 km/h (4 Bft) SO 225 2 min 0 W/m 3,9 C 6,6 C 29,5 km/h (5 Bft)
17/04/2012 15:40 9,3 C 71 % 1009,0 hPa 0,0 mm 19,8 km/h (3 Bft) S-SO 202 2 min 0 W/m 4,3 C 6,5 C 29,5 km/h (5 Bft)
17/04/2012 15:50 9,1 C 75 % 1008,8 hPa 0,0 mm 8,3 km/h (2 Bft) O-SO 247 2 min 0 W/m 4,9 C 7,9 C 8,3 km/h (2 Bft)
17/04/2012 16:00 8,9 C 76 % 1008,5 hPa 0,0 mm 15,1 km/h (3 Bft) S-SO 202 2 min 0 W/m 4,9 C 6,5 C 18,7 km/h (3 Bft)
17/04/2012 16:10 8,8 C 79 % 1008,2 hPa 0,0 mm 8,6 km/h (2 Bft) SO 225 2 min 0 W/m 5,4 C 7,5 C 8,6 km/h (2 Bft)
17/04/2012 16:20 8,6 C 80 % 1007,9 hPa 0,0 mm 12,2 km/h (2 Bft) SO 225 2 min 0 W/m 5,3 C 6,6 C 19,8 km/h (3 Bft)
17/04/2012 16:30 8,5 C 80 % 1007,6 hPa 0,0 mm 7,2 km/h (2 Bft) O-SO 247 2 min 0 W/m 5,3 C 7,4 C 9,7 km/h (2 Bft)
17/04/2012 16:40 8,6 C 80 % 1007,4 hPa 0,1 mm 16,9 km/h (3 Bft) SO 225 2 min 0 W/m 5,3 C 6,0 C 21,6 km/h (4 Bft)
17/04/2012 16:50 8,6 C 79 % 1007,3 hPa 0,0 mm 19,8 km/h (3 Bft) S-SO 202 2 min 0 W/m 5,2 C 5,6 C 29,5 km/h (5 Bft)
17/04/2012 17:00 8,3 C 82 % 1007,4 hPa 0,0 mm 13,3 km/h (3 Bft) SO 225 2 min 0 W/m 5,4 C 6,1 C 13,3 km/h (3 Bft)
17/04/2012 17:10 7,9 C 84 % 1007,3 hPa 0,0 mm 8,3 km/h (2 Bft) S-SO 202 2 min 0 W/m 5,4 C 6,5 C 13,0 km/h (3 Bft)
17/04/2012 17:20 7,8 C 85 % 1007,1 hPa 0,0 mm 9,4 km/h (2 Bft) S-SO 202 2 min 0 W/m 5,4 C 6,1 C 14,4 km/h (3 Bft)
17/04/2012 17:30 7,8 C 87 % 1007,2 hPa 0,0 mm 8,6 km/h (2 Bft) S-SO 202 2 min 0 W/m 5,8 C 6,3 C 9,7 km/h (2 Bft)
17/04/2012 17:40 7,7 C 88 % 1007,0 hPa 0,1 mm 10,8 km/h (2 Bft) SO 225 2 min 0 W/m 5,8 C 5,7 C 13,7 km/h (3 Bft)
17/04/2012 17:50 7,7 C 88 % 1006,9 hPa 0,0 mm 6,5 km/h (2 Bft) S-SO 202 2 min 0 W/m 5,8 C 6,7 C 13,3 km/h (3 Bft)
17/04/2012 18:00 7,6 C 89 % 1006,7 hPa 0,0 mm 9,7 km/h (2 Bft) SO 225 2 min 0 W/m 5,9 C 5,8 C 14,4 km/h (3 Bft)
17/04/2012 18:10 7,6 C 89 % 1006,8 hPa 0,0 mm 8,3 km/h (2 Bft) SO 225 2 min 0 W/m 5,9 C 6,1 C 9,0 km/h (2 Bft)
17/04/2012 18:20 7,6 C 89 % 1006,8 hPa 0,1 mm 9,7 km/h (2 Bft) SO 225 2 min 0 W/m 5,9 C 5,8 C 11,9 km/h (2 Bft)
17/04/2012 18:30 7,5 C 90 % 1006,8 hPa 0,0 mm 9,4 km/h (2 Bft) SO 225 2 min 0 W/m 6,0 C 5,8 C 11,9 km/h (2 Bft)
17/04/2012 18:40 7,5 C 90 % 1006,8 hPa 0,1 mm 9,0 km/h (2 Bft) O-SO 247 2 min 0 W/m 6,0 C 5,8 C 9,7 km/h (2 Bft)
17/04/2012 18:50 7,4 C 90 % 1006,7 hPa 0,1 mm 4,7 km/h (1 Bft) S-SO 202 2 min 0 W/m 5,9 C 6,9 C 10,1 km/h (2 Bft)
17/04/2012 19:00 7,4 C 91 % 1006,5 hPa 0,0 mm 6,5 km/h (2 Bft) S-SO 202 2 min 0 W/m 6,0 C 6,3 C 7,2 km/h (2 Bft)
17/04/2012 19:10 7,4 C 92 % 1006,4 hPa 0,0 mm 8,3 km/h (2 Bft) SO 225 2 min 0 W/m 6,2 C 5,9 C 13,7 km/h (3 Bft)
17/04/2012 19:20 7,4 C 92 % 1006,4 hPa 0,0 mm 4,0 km/h (1 Bft) S-SO 202 2 min 0 W/m 6,2 C 7,4 C 7,9 km/h (2 Bft)
17/04/2012 19:30 7,5 C 92 % 1006,3 hPa 0,0 mm 7,9 km/h (2 Bft) SO 225 2 min 0 W/m 6,3 C 6,1 C 9,7 km/h (2 Bft)
17/04/2012 19:40 7,6 C 92 % 1006,2 hPa 0,0 mm 7,6 km/h (2 Bft) S-SO 202 2 min 0 W/m 6,4 C 6,3 C 8,3 km/h (2 Bft)
17/04/2012 19:50 7,6 C 92 % 1006,0 hPa 0,0 mm 6,1 km/h (2 Bft) S 180 2 min 0 W/m 6,4 C 6,7 C 9,4 km/h (2 Bft)
17/04/2012 20:00 7,7 C 92 % 1006,0 hPa 0,0 mm 5,4 km/h (2 Bft) SO 225 2 min 0 W/m 6,5 C 7,0 C 5,4 km/h (2 Bft)
17/04/2012 20:10 7,8 C 92 % 1005,9 hPa 0,0 mm 6,1 km/h (2 Bft) S-SO 202 2 min 0 W/m 6,6 C 6,9 C 8,3 km/h (2 Bft)
17/04/2012 20:20 7,8 C 92 % 1006,0 hPa 0,0 mm 7,9 km/h (2 Bft) SO 225 2 min 0 W/m 6,6 C 6,4 C 11,2 km/h (2 Bft)
17/04/2012 20:30 7,6 C 91 % 1006,0 hPa 0,0 mm 5,4 km/h (2 Bft) S-SO 202 2 min 0 W/m 6,2 C 6,9 C 6,5 km/h (2 Bft)
17/04/2012 20:40 7,6 C 91 % 1006,0 hPa 0,0 mm 6,8 km/h (2 Bft) SO 225 0 min 0 W/m 6,2 C 6,5 C 13,7 km/h (3 Bft)
17/04/2012 20:50 7,5 C 91 % 1006,0 hPa 0,0 mm 4,7 km/h (1 Bft) SO 225 0 min 0 W/m 6,1 C 7,0 C 8,3 km/h (2 Bft)
17/04/2012 21:00 7,4 C 91 % 1006,1 hPa 0,0 mm 7,9 km/h (2 Bft) SO 225 0 min 0 W/m 6,0 C 6,0 C 14,0 km/h (3 Bft)
17/04/2012 21:10 7,3 C 91 % 1006,1 hPa 0,0 mm 6,5 km/h (2 Bft) SO 225 0 min 0 W/m 5,9 C 6,2 C 10,8 km/h (2 Bft)
17/04/2012 21:20 7,2 C 92 % 1006,1 hPa 0,0 mm 9,0 km/h (2 Bft) S-SO 202 0 min 0 W/m 6,0 C 5,5 C 9,4 km/h (2 Bft)
17/04/2012 21:30 7,1 C 92 % 1006,1 hPa 0,0 mm 5,8 km/h (2 Bft) SO 225 0 min 0 W/m 5,9 C 6,2 C 7,9 km/h (2 Bft)
17/04/2012 21:40 6,9 C 92 % 1006,2 hPa 0,0 mm 8,3 km/h (2 Bft) SO 225 0 min 0 W/m 5,7 C 5,3 C 10,4 km/h (2 Bft)
17/04/2012 21:50 6,9 C 92 % 1006,3 hPa 0,0 mm 7,6 km/h (2 Bft) SO 225 0 min 0 W/m 5,7 C 5,5 C 10,1 km/h (2 Bft)
17/04/2012 22:00 6,8 C 92 % 1006,3 hPa 0,0 mm 5,8 km/h (2 Bft) SO 225 0 min 0 W/m 5,6 C 5,9 C 7,9 km/h (2 Bft)
17/04/2012 22:10 6,6 C 91 % 1006,3 hPa 0,0 mm 6,5 km/h (2 Bft) O-SO 247 0 min 0 W/m 5,2 C 5,4 C 6,8 km/h (2 Bft)
17/04/2012 22:20 6,5 C 90 % 1006,4 hPa 0,0 mm 5,8 km/h (2 Bft) O-SO 247 0 min 0 W/m 5,0 C 5,5 C 11,2 km/h (2 Bft)
17/04/2012 22:30 6,3 C 89 % 1006,3 hPa 0,0 mm 7,9 km/h (2 Bft) S-SO 202 0 min 0 W/m 4,6 C 4,7 C 10,1 km/h (2 Bft)
17/04/2012 22:40 6,3 C 89 % 1006,4 hPa 0,0 mm 7,2 km/h (2 Bft) O 270 0 min 0 W/m 4,6 C 4,9 C 7,2 km/h (2 Bft)
17/04/2012 22:50 6,2 C 88 % 1006,5 hPa 0,0 mm 4,3 km/h (1 Bft) O 270 0 min 0 W/m 4,4 C 6,2 C 6,8 km/h (2 Bft)
17/04/2012 23:00 6,1 C 88 % 1006,4 hPa 0,0 mm 4,3 km/h (1 Bft) S-SO 202 0 min 0 W/m 4,3 C 6,1 C 8,3 km/h (2 Bft)
17/04/2012 23:10 5,9 C 89 % 1006,5 hPa 0,0 mm 1,8 km/h (1 Bft) O-SO 247 0 min 0 W/m 4,2 C 5,9 C 4,0 km/h (1 Bft)
17/04/2012 23:20 5,8 C 89 % 1006,5 hPa 0,0 mm 10,1 km/h (2 Bft) SO 225 0 min 0 W/m 4,1 C 3,6 C 15,8 km/h (3 Bft)
17/04/2012 23:30 5,8 C 90 % 1006,4 hPa 0,0 mm 7,2 km/h (2 Bft) S-SO 202 0 min 0 W/m 4,3 C 4,3 C 8,6 km/h (2 Bft)
17/04/2012 23:40 5,7 C 90 % 1006,3 hPa 0,0 mm 3,6 km/h (1 Bft) SO 225 0 min 0 W/m 4,2 C 5,7 C 6,1 km/h (2 Bft)
17/04/2012 23:50 5,6 C 91 % 1006,2 hPa 0,0 mm 6,1 km/h (2 Bft) S-SO 202 0 min 0 W/m 4,2 C 4,4 C 7,9 km/h (2 Bft)
_ Min-Heure 06:10 11:40 20:10 - 09:10 - - - - 06:10 06:10 09:10
Minimum _ -2,7 C 56 % 1005,9 hPa - 0,0 km/h (0 Bft) - - - - -5,5 C -2,7 C 0,0 km/h (0 Bft)
_ Max-Heure 14:50 22:00 00:00 18:40 15:30 - - 20:30 23:50 20:20 13:50 15:00
Maximum _ 9,8 C 92 % 1021,0 hPa 0,1 mm 21,6 km/h
SO (4 Bft)
- - 2 min 0 W/m 6,6 C 8,3 C 29,9 km/h
O-SO (5 Bft)
Moyenne _ 4,3 C 78 % 1012,7 hPa #0,5 mm 5,8 km/h (2 Bft) SO - #2:40 h 0 W/m 0,6 C 3,4 C 8,2 km/h (2 Bft)
Saint Bonnet de Bellac- Haute Vienne - France